GFSGL_sfc_temp_000.txt.gz
Temp
43 43 42 44 43 41 38 38 38 40 41 42 43 42 42 42 42 40 40 40 40 40 40 39 38 38 37 36 36 36 36 36 33 37 38 41 41 42 44 45 45 44 46
43 42 42 40 38 37 38 39 40 41 42 42 43 43 43 41 40 40 39 39 38 36 36 35 35 40 36 36 35 34 34 34 34 32 34 36 38 41 42 41 44 45 43
42 40 38 37 36 36 37 38 39 40 42 42 43 43 42 41 40 38 37 36 35 34 33 33 33 33 31 32 32 31 31 35 33 31 32 34 35 37 38 39 40 40 43
40 39 36 35 36 35 37 38 39 40 42 42 42 40 38 38 38 37 36 33 32 33 32 32 31 31 31 31 31 31 32 31 31 31 32 32 32 35 35 34 34 36 38
39 39 38 40 40 38 38 39 40 40 41 40 40 38 37 37 38 33 33 32 31 30 31 32 32 33 36 35 33 31 30 29 30 30 30 31 31 30 31 34 33 34 35
39 38 40 42 42 41 40 40 39 39 39 38 35 33 33 36 37 36 35 31 31 31 29 30 30 32 32 33 34 35 34 30 29 28 29 28 29 29 31 30 30 29 28
40 40 39 40 40 40 40 38 36 34 33 32 32 32 32 32 36 36 36 31 30 29 28 28 29 32 32 31 32 33 33 33 31 31 29 29 30 32 31 29 29 29 30
36 36 38 39 37 36 35 34 33 33 32 31 30 30 29 31 34 34 34 29 27 27 27 28 28 28 30 31 31 30 30 31 32 32 30 31 32 33 32 32 32 32 32
36 36 36 35 34 33 32 31 31 30 30 29 30 29 27 28 32 32 31 24 23 24 27 28 28 29 30 32 29 27 28 30 34 35 35 34 34 35 34 31 28 28 26
35 35 34 33 31 29 29 29 29 28 29 29 28 27 27 23 28 31 30 25 22 25 25 29 30 30 31 32 29 27 26 29 31 31 31 34 35 34 34 33 31 28 27
35 34 33 31 30 29 28 27 26 26 25 20 17 20 23 25 24 29 31 27 26 25 26 26 28 30 31 32 32 28 28 31 30 31 29 30 30 31 32 33 33 31 29
33 32 31 30 30 30 27 26 26 24 20 18 14 16 20 18 26 28 29 30 29 26 26 27 27 30 30 30 28 29 30 28 27 28 28 28 28 30 32 33 33 33 34
32 30 30 30 29 29 26 25 24 22 18 18 22 20 21 23 21 26 27 28 29 26 28 29 27 28 27 25 27 27 25 25 25 25 27 28 29 31 32 31 31 33 33
31 30 29 28 27 26 27 27 25 18 17 21 19 19 21 20 20 22 25 26 28 29 27 26 25 25 22 22 23 23 23 24 23 24 25 28 29 29 29 31 29 30 29
31 31 29 27 25 25 26 25 24 22 19 20 18 18 19 18 22 27 26 25 26 26 25 23 22 21 19 21 21 21 21 22 22 23 24 25 27 27 27 29 30 29 28
30 28 22 21 21 23 24 23 29 27 29 29 28 23 23 26 27 27 26 27 26 25 22 19 18 17 16 18 18 17 19 19 20 21 22 25 25 25 26 26 28 28 27
21 23 20 21 19 17 17 17 12 19 25 26 26 26 26 26 26 25 24 24 24 22 18 18 16 16 16 17 18 17 16 17 19 20 20 21 22 25 25 25 26 28 27
17 17 18 16 14 14 8 10 7 6 7 11 19 23 24 25 24 23 22 20 17 18 17 16 15 15 16 16 15 15 16 16 16 16 18 18 18 21 20 22 23 23 24
25 20 12 11 10 9 8 7 6 6 6 10 14 15 16 22 22 21 20 14 13 13 14 14 14 14 14 15 14 13 13 15 15 13 15 16 15 19 22 18 18 16 19
23 20 15 14 12 11 10 8 10 8 10 13 10 10 16 16 13 13 14 13 12 13 12 13 13 13 13 13 13 13 14 14 15 13 11 11 12 14 14 16 13 15 16
18 18 17 16 13 11 8 7 6 7 10 12 7 8 15 13 12 13 12 12 11 11 11 11 11 11 12 12 13 11 12 13 15 14 11 11 8 11 13 13 13 15 16
19 15 15 12 11 7 7 7 3 6 9 9 8 11 14 11 11 13 12 11 12 12 12 10 9 10 11 11 11 10 10 11 12 13 11 10 10 9 10 11 11 12 14
22 14 12 13 9 6 3 4 1 -0 5 4 5 9 11 11 10 12 11 10 11 11 11 10 8 8 9 9 10 11 10 10 9 8 9 7 9 9 9 11 11 12 12
16 13 17 10 2 7 -1 -1 -3 2 5 3 2 4 8 9 10 10 11 10 10 10 10 8 9 8 9 9 9 9 9 10 9 8 4 6 8 7 8 9 11 10 11
22 23 14 7 4 4 1 -2 -3 -4 -2 -0 1 4 7 9 11 11 11 11 11 10 10 9 8 8 8 8 8 7 6 6 7 5 7 5 5 4 3 5 4 7 7
25 24 19 10 4 5 5 2 -1 -4 -2 1 -1 3 4 6 9 10 12 12 11 10 10 10 9 8 8 10 9 8 5 4 5 4 4 7 5 4 3 4 4 5 5

GFSGL_sfc_temp_003.txt.gz
Temp
54 52 52 51 49 48 48 48 48 49 50 50 49 49 47 46 44 45 45 46 47 47 47 46 45 46 46 47 47 47 46 45 41 45 49 50 50 50 52 54 54 54 54
52 51 50 49 48 47 47 47 48 48 48 49 48 46 45 46 47 46 45 45 45 45 45 44 44 45 44 44 44 43 44 45 43 40 45 47 47 49 50 50 52 53 53
51 50 48 47 47 46 46 47 47 47 48 47 45 45 46 46 45 45 44 43 43 43 42 41 40 40 40 41 41 41 42 43 43 41 41 45 46 47 47 48 48 49 51
48 48 47 45 45 44 45 46 46 47 47 44 46 45 44 45 45 45 44 41 41 40 40 40 40 39 38 39 39 39 40 40 40 39 40 41 43 45 44 42 42 45 45
47 46 45 45 45 42 44 45 47 47 46 45 43 43 42 42 43 42 41 40 39 38 39 39 38 38 36 37 38 39 39 38 38 36 35 36 37 37 37 41 40 42 43
44 43 44 44 46 46 45 44 44 43 43 42 41 40 40 41 37 37 37 39 38 37 36 37 38 36 36 34 34 34 36 35 34 34 34 34 37 38 39 39 38 37 35
43 43 44 44 44 43 43 43 42 41 41 40 40 39 39 39 35 36 35 38 37 36 35 35 35 37 36 37 35 34 33 33 32 33 32 33 34 37 38 36 37 37 37
43 43 44 43 42 42 41 40 40 40 39 38 38 37 37 37 33 33 33 35 34 34 34 34 34 35 35 34 33 33 34 35 36 36 36 36 38 39 38 38 38 38 39
43 43 42 41 40 40 38 38 38 38 37 37 36 36 35 35 32 32 32 32 31 31 33 34 34 34 33 33 32 30 32 35 37 36 36 36 36 36 36 37 33 32 31
41 41 41 40 39 38 38 37 37 37 36 35 34 34 32 31 31 30 31 31 29 30 32 33 32 32 31 31 30 30 29 33 34 34 35 37 36 36 34 35 35 31 31
42 41 41 40 38 38 37 38 37 36 33 30 29 30 31 30 30 29 30 29 29 29 30 32 33 31 30 30 30 29 29 32 31 32 34 36 36 36 37 38 37 34 33
42 40 40 40 38 38 37 37 36 34 31 29 28 29 31 29 29 29 29 29 30 28 29 31 31 28 28 28 28 28 28 28 30 29 30 31 32 34 36 38 39 39 39
40 39 39 39 38 38 36 35 34 34 31 29 29 27 28 29 30 29 28 29 30 29 30 28 27 27 26 27 26 26 26 28 28 27 29 31 33 35 36 34 35 37 35
39 39 39 37 37 37 36 35 33 31 29 29 27 26 26 27 27 29 29 30 29 29 29 29 26 25 25 26 27 27 27 27 26 26 28 30 32 33 33 34 33 33 32
38 38 37 35 34 34 34 33 32 31 29 28 27 27 24 23 25 27 27 26 27 26 27 25 23 23 25 25 25 25 26 26 25 26 27 29 31 32 32 34 33 33 31
35 35 34 33 33 32 33 32 31 29 28 28 27 26 26 26 27 26 25 25 25 24 23 21 19 20 22 22 22 23 24 24 25 25 26 28 29 30 31 32 32 32 31
31 31 33 29 32 31 30 29 27 29 26 26 26 26 25 25 25 24 23 23 22 22 20 19 18 18 20 22 22 22 21 23 24 25 25 25 27 30 30 31 31 31 31
29 24 30 31 31 29 28 27 26 24 22 23 24 23 23 24 23 23 21 20 18 19 18 17 17 18 19 20 21 20 22 23 23 23 23 24 25 28 28 29 30 30 31
32 33 30 29 29 26 27 27 26 25 24 23 23 23 22 22 22 20 20 17 15 15 16 16 16 17 18 19 19 19 20 21 22 22 22 23 23 25 26 27 28 25 28
32 27 24 30 29 28 28 26 25 24 24 22 21 20 21 21 18 17 18 16 15 15 15 16 16 17 17 18 19 19 20 21 22 22 22 23 23 24 24 25 26 27 27
31 31 22 30 28 27 26 25 24 23 23 22 20 19 17 18 17 17 16 16 16 16 15 16 16 16 17 18 18 18 19 20 20 21 22 23 23 23 24 25 26 26 27
29 27 29 28 27 27 26 25 23 22 22 21 20 20 17 18 17 17 16 15 16 16 16 16 15 16 16 16 16 17 18 18 19 19 21 22 24 24 25 25 25 25 25
28 28 28 28 26 22 25 25 23 23 22 22 20 19 19 18 17 17 17 16 16 16 16 15 15 14 15 16 16 16 16 16 17 18 19 22 23 23 24 24 23 23 23
28 28 27 27 25 23 24 23 23 19 20 22 20 19 19 18 17 17 17 17 16 16 16 14 14 14 14 14 16 16 15 15 17 18 18 20 21 22 22 23 23 21 23
28 28 28 27 25 24 23 24 23 22 22 21 21 20 19 19 18 18 18 18 17 16 15 15 14 14 14 13 14 13 11 10 13 13 20 20 18 18 18 20 19 21 19
29 29 29 28 26 24 23 23 23 22 21 22 22 21 20 19 18 18 18 18 17 16 15 15 15 14 14 15 14 12 10 10 11 10 17 20 18 17 18 18 17 20 19

GFSGL_sfc_temp_006.txt.gz
Temp
63 61 60 58 57 57 56 55 55 55 55 55 54 53 52 47 45 44 45 47 49 49 50 50 50 52 51 52 52 52 50 50 45 49 54 56 54 54 55 56 57 57 58
59 58 58 57 57 56 54 54 53 52 53 53 50 47 47 47 48 47 47 50 49 49 49 49 49 51 49 49 49 48 49 50 47 44 50 51 52 54 54 53 55 58 58
58 58 57 55 55 53 52 51 50 48 48 47 48 48 47 47 48 49 50 49 49 49 48 47 47 46 45 47 47 46 47 48 48 45 45 50 51 52 51 52 52 53 56
57 56 55 54 51 49 47 49 50 50 50 50 50 49 48 48 49 49 49 47 47 47 46 45 45 44 43 44 44 44 44 44 45 44 44 45 47 49 50 47 47 51 50
55 54 51 52 52 52 51 51 51 50 50 50 49 48 48 48 48 44 45 45 45 44 44 44 44 43 39 38 40 40 42 42 43 43 43 44 44 44 44 47 45 46 48
54 50 51 51 51 51 50 49 49 49 49 48 47 46 45 47 36 36 38 42 43 43 43 44 44 41 41 38 37 36 36 37 38 38 38 37 40 41 43 41 40 39 36
52 51 51 51 49 49 49 49 48 47 47 45 45 45 44 44 35 35 34 39 40 40 41 41 41 43 40 41 38 36 35 35 33 35 33 34 35 38 39 37 38 37 38
51 51 50 49 48 48 48 47 46 46 45 44 44 43 42 43 36 34 33 37 38 39 40 40 40 40 40 37 36 35 36 37 38 38 37 38 39 40 40 41 40 39 39
50 48 49 48 47 47 46 45 45 45 44 43 42 41 40 40 35 33 32 34 35 35 38 39 37 35 35 34 33 32 34 36 39 37 37 36 36 36 37 38 34 34 33
49 48 49 48 47 46 45 45 45 45 43 42 39 39 36 36 34 32 32 33 30 31 33 34 34 35 33 33 31 31 30 34 36 37 38 36 36 38 35 37 37 33 33
51 50 49 48 46 46 46 46 45 44 40 35 33 34 35 34 34 32 31 29 30 29 31 33 36 31 29 29 30 30 30 32 32 32 34 35 37 39 39 39 39 36 34
51 49 48 47 46 46 45 45 44 42 37 33 32 33 35 34 34 32 31 30 30 29 30 33 32 29 29 29 29 29 28 29 30 30 31 31 33 36 39 40 40 40 40
48 47 46 46 45 46 44 43 41 40 34 32 33 32 33 34 34 31 30 30 30 30 31 29 28 28 28 29 27 27 27 30 30 29 30 31 34 37 38 37 38 40 40
46 45 46 45 44 44 44 42 40 35 32 32 32 31 31 31 30 30 30 30 30 30 29 30 28 27 27 28 29 29 29 29 28 28 30 33 34 35 34 36 35 35 34
45 44 44 43 42 42 42 41 37 36 32 30 31 30 27 26 27 27 26 26 27 26 27 27 26 25 26 28 28 28 29 30 28 29 30 30 32 35 35 36 35 35 33
39 41 41 40 40 39 40 39 31 29 28 28 27 27 28 27 27 26 25 25 24 24 26 23 22 22 23 26 26 27 27 27 28 29 29 30 30 33 33 33 33 34 33
36 36 40 36 38 37 36 35 32 34 29 27 26 26 26 25 25 25 24 23 23 24 22 21 21 21 22 25 25 25 25 27 28 28 28 28 29 31 33 32 32 31 32
35 31 37 38 38 36 34 33 32 30 29 29 29 26 25 24 24 24 23 23 22 22 21 20 20 21 23 24 24 23 24 26 26 27 27 28 28 29 30 31 32 31 32
36 37 34 35 34 32 32 32 31 31 30 29 29 29 27 25 24 23 23 22 19 19 19 20 21 22 22 24 23 23 24 25 25 25 26 27 27 28 29 30 30 29 30
36 31 32 34 34 33 32 31 31 30 30 28 27 25 25 25 23 22 22 21 21 20 20 21 21 22 22 22 23 24 25 24 24 25 26 26 27 27 28 28 29 28 29
36 35 29 35 33 32 31 30 30 29 29 28 27 24 20 22 22 21 21 20 20 20 20 21 21 21 21 22 23 23 24 24 24 24 25 26 27 26 28 29 29 29 29
34 34 33 32 32 31 31 31 29 29 29 27 27 26 21 23 22 22 22 21 20 21 21 21 21 21 20 20 20 21 22 22 24 23 24 25 27 27 27 28 27 27 28
33 32 32 32 31 29 29 30 29 28 28 27 27 27 25 23 22 22 22 21 21 20 20 20 20 19 20 20 21 21 20 20 22 23 23 25 26 26 26 26 27 26 26
33 31 32 31 30 30 29 28 29 27 27 27 27 26 26 25 23 22 22 22 22 21 20 20 19 18 18 19 20 20 20 18 21 22 24 24 25 26 26 26 26 25 25
32 31 31 31 30 29 29 29 28 28 27 27 27 27 26 25 24 24 24 23 22 21 20 20 19 19 18 17 17 17 15 15 17 16 24 25 24 23 23 25 25 26 24
32 32 31 31 30 30 29 28 28 28 27 27 27 27 26 25 25 24 24 23 22 22 20 20 20 18 18 19 17 15 14 14 15 16 22 24 22 22 23 22 22 24 24

GFSGL_sfc_temp_009.txt.gz
Temp
66 63 61 61 60 59 59 58 56 53 54 53 52 50 50 49 48 47 47 48 47 47 49 50 50 51 50 51 51 51 50 50 45 49 53 55 54 54 56 57 57 56 57
63 62 61 61 60 59 58 54 53 54 53 52 51 50 49 48 47 47 46 47 48 47 48 48 48 50 48 49 49 48 48 50 47 44 49 51 51 54 54 54 56 58 57
62 61 61 60 58 56 54 53 53 53 53 52 52 51 50 51 51 50 50 49 48 48 48 47 47 46 45 47 46 46 47 48 48 46 46 50 51 52 52 53 53 54 56
61 60 58 56 55 54 53 53 53 54 52 52 52 51 50 50 50 50 49 47 47 48 48 47 46 45 45 44 44 44 44 43 44 44 45 46 48 50 50 48 48 52 51
59 59 56 56 55 54 53 53 52 52 52 52 50 50 50 49 49 44 44 43 43 44 45 46 47 46 41 41 42 40 40 39 40 41 42 43 45 46 45 48 46 48 49
58 56 56 55 52 52 51 51 51 50 50 50 49 48 47 48 36 36 37 40 40 41 41 43 45 43 43 40 39 38 38 36 36 37 38 38 40 42 44 43 43 41 38
58 57 56 52 51 50 51 51 50 49 49 47 47 47 45 45 36 36 34 38 37 38 40 41 42 44 42 43 41 38 37 36 34 35 32 34 35 39 40 39 38 38 38
57 55 54 52 50 50 51 50 49 49 47 46 45 45 43 44 37 34 33 36 37 37 39 39 39 40 41 39 38 37 37 38 38 39 37 38 39 40 40 39 38 39 40
55 54 53 51 48 49 49 48 48 47 46 45 45 42 39 39 37 34 34 34 33 34 36 37 37 37 37 36 34 32 34 36 39 38 37 37 37 37 38 38 33 32 32
54 54 52 51 49 48 48 47 48 47 46 44 41 40 37 37 36 35 34 33 30 31 34 35 35 35 34 34 33 31 30 34 35 35 37 38 35 37 35 37 36 32 33
55 54 52 51 50 49 48 48 47 46 43 39 36 37 38 37 36 35 32 31 30 29 31 32 35 29 30 30 30 30 30 31 31 32 33 35 37 38 40 39 39 37 34
54 52 49 49 49 49 47 47 46 44 41 37 33 34 37 36 35 33 32 31 31 29 29 32 32 30 30 30 30 30 29 29 30 30 30 31 33 35 38 40 40 38 39
46 46 45 47 48 49 47 45 43 43 38 34 35 33 34 35 35 34 31 30 30 29 30 30 30 28 29 29 29 29 28 29 30 29 30 32 34 36 37 37 38 39 38
44 44 46 45 45 46 47 45 43 39 35 34 32 31 31 30 32 31 29 29 29 28 28 28 29 28 28 28 30 30 30 30 30 29 30 32 34 34 34 35 34 36 34
42 44 44 45 45 44 44 43 41 39 34 32 31 30 26 26 28 28 27 26 26 25 25 27 26 25 25 27 29 29 30 30 29 30 30 31 32 33 34 36 37 36 33
40 41 42 41 42 41 42 41 32 31 30 29 28 27 28 28 27 27 27 26 25 25 26 23 22 22 23 25 25 26 28 28 28 29 30 30 30 31 32 34 36 34 34
38 39 41 39 39 39 37 34 33 35 30 29 27 27 27 27 27 26 26 26 25 25 23 22 21 22 23 25 25 25 25 27 28 29 29 28 30 30 30 31 33 33 33
38 35 37 38 37 36 34 33 33 31 30 32 29 28 28 27 27 26 26 26 24 24 22 21 21 23 24 25 25 25 26 27 27 28 28 28 28 29 29 29 30 31 32
38 36 35 34 34 33 33 33 33 32 32 31 32 32 30 28 25 25 26 23 21 21 22 22 23 23 23 24 24 25 26 25 25 26 27 27 28 29 29 29 29 30 31
42 33 33 34 33 34 33 32 32 31 31 31 30 29 28 26 25 24 25 23 22 22 22 22 23 23 23 23 23 24 25 25 25 25 25 27 28 29 27 28 29 28 29
39 36 32 34 33 33 32 32 31 30 30 30 30 27 24 24 24 24 23 23 22 22 21 22 22 23 23 23 23 23 23 24 24 24 25 26 27 27 29 29 29 29 29
34 33 33 32 32 32 31 31 31 30 30 30 30 30 25 26 26 24 24 23 23 23 23 22 22 22 22 21 21 21 21 21 22 23 23 26 27 27 28 28 28 28 28
34 32 32 33 33 31 31 31 30 30 30 30 30 29 29 27 26 25 24 24 24 23 23 22 21 20 21 21 22 21 19 18 19 21 21 24 26 26 27 27 27 26 26
34 32 32 32 32 32 30 30 29 30 30 29 29 28 28 28 27 26 25 25 24 24 23 22 21 20 19 19 20 20 20 18 18 19 19 24 24 25 25 26 26 26 26
33 32 32 32 32 31 30 30 30 30 30 30 29 28 29 28 28 27 27 26 25 24 23 22 21 21 20 19 18 17 16 15 16 16 21 24 23 23 24 25 23 26 25
33 32 32 32 32 32 31 30 29 30 29 30 29 29 29 28 28 27 27 25 25 24 23 23 22 20 20 21 19 16 15 14 14 15 20 22 21 21 20 22 21 23 23

GFSGL_sfc_temp_012.txt.gz
Temp
60 58 57 56 56 55 53 50 50 49 50 51 50 50 49 47 44 43 43 43 43 43 44 44 44 46 45 45 44 44 41 41 38 41 45 46 46 46 49 48 49 50 48
59 57 56 56 55 53 51 50 49 48 49 49 49 48 48 46 45 44 43 43 43 42 43 42 43 48 43 42 43 41 41 41 39 37 40 42 41 44 44 46 52 55 48
59 58 56 54 52 50 50 49 49 48 48 48 47 46 46 45 44 44 44 42 41 41 41 40 42 41 38 38 38 39 39 43 39 37 36 38 39 41 41 43 43 44 50
59 57 54 52 51 50 49 49 48 48 47 46 46 46 45 45 46 43 43 40 39 39 39 39 39 40 39 38 38 35 37 34 35 34 35 36 38 40 39 38 37 40 41
56 56 53 53 52 50 48 48 48 47 47 46 45 44 44 44 43 37 38 36 35 36 36 38 39 40 42 40 40 36 34 31 31 32 32 34 35 35 35 38 37 37 38
54 53 55 53 51 49 47 47 46 45 45 44 43 43 41 46 37 36 35 32 34 34 32 35 36 39 39 40 40 39 36 32 31 30 30 29 31 33 35 34 31 30 28
54 55 52 48 48 48 48 47 46 44 43 41 41 41 39 39 37 36 34 32 32 32 32 33 34 39 37 37 36 36 36 35 32 31 29 29 30 32 33 31 30 28 28
56 52 49 48 48 48 47 46 44 43 41 40 40 39 37 39 38 37 34 30 30 30 31 31 31 32 34 35 34 31 32 33 34 35 33 32 34 35 34 34 32 33 32
55 50 47 48 48 47 45 43 42 41 40 39 40 37 34 34 37 36 33 29 29 29 31 31 32 31 34 35 31 29 29 31 37 38 35 34 36 37 36 33 29 29 27
49 49 47 46 47 44 44 43 42 41 41 37 35 34 36 32 36 35 32 27 25 27 29 30 32 33 30 31 28 28 27 29 31 30 30 32 34 35 35 33 31 27 27
50 48 44 41 43 43 44 43 41 39 36 32 31 32 33 34 33 35 32 27 26 26 26 27 29 31 30 30 31 27 27 29 28 28 28 29 30 32 33 35 35 31 28
47 47 46 45 45 46 42 41 40 37 34 31 28 29 30 30 34 33 30 31 30 25 25 27 27 30 30 30 29 29 30 28 26 25 26 27 28 29 33 35 35 35 35
45 44 43 44 44 44 41 38 36 35 30 29 30 27 28 29 28 31 29 29 28 25 26 26 28 29 29 28 29 30 28 26 26 26 26 28 29 31 33 32 33 33 34
42 42 42 41 41 41 42 39 35 31 28 29 27 26 25 26 25 25 25 25 27 26 25 25 26 27 26 26 28 28 28 28 26 26 26 28 30 30 30 32 32 32 30
41 40 38 37 37 38 39 35 32 30 29 26 25 24 20 19 23 27 26 24 23 24 23 25 23 23 23 24 25 26 26 26 26 26 26 27 28 29 29 29 30 28 28
35 35 35 35 35 35 35 35 33 31 32 31 29 23 21 27 28 28 28 28 27 26 23 21 20 21 21 22 22 22 24 24 25 26 25 27 27 27 28 29 31 27 24
34 34 35 33 34 32 31 31 28 31 32 31 29 29 29 28 29 28 28 28 27 25 20 20 19 20 20 22 22 22 22 24 26 25 25 25 26 26 27 27 28 28 28
34 32 33 34 31 30 31 30 30 29 26 28 29 28 29 30 29 28 27 26 21 22 20 19 19 20 20 21 21 21 22 23 23 23 24 25 24 25 26 26 26 27 27
36 33 30 32 31 30 30 30 30 29 28 28 26 27 24 28 29 28 27 20 17 18 19 20 20 20 20 20 20 20 21 22 22 21 22 23 25 25 24 26 26 24 25
36 32 29 32 31 31 30 29 29 28 28 28 25 23 20 19 17 18 20 17 14 17 18 19 20 20 19 19 19 19 20 20 20 20 20 22 23 25 25 24 25 25 25
34 33 32 31 31 30 29 29 29 28 27 27 26 21 17 16 18 17 19 19 14 14 14 17 18 17 18 18 19 17 18 17 17 18 18 19 22 23 24 25 25 25 24
30 31 31 30 30 30 30 29 29 28 28 27 26 24 19 18 19 17 20 18 17 14 15 15 17 16 17 16 17 16 15 13 13 14 15 17 20 21 23 24 20 19 23
32 31 31 30 31 30 30 29 29 29 28 27 26 25 25 24 18 17 16 19 19 19 14 13 13 14 15 14 16 16 14 12 13 14 13 14 19 19 20 19 21 17 16
32 32 31 30 31 30 30 29 29 28 28 28 28 26 25 24 19 17 16 18 16 17 17 12 12 14 14 13 13 14 15 13 13 13 12 15 17 17 18 18 14 18 11
31 32 30 30 30 30 30 30 29 29 29 29 28 27 26 25 21 21 17 17 15 14 14 11 13 13 14 15 13 13 11 13 11 12 13 16 15 14 13 16 13 17 11
31 31 30 31 31 31 30 30 29 28 28 29 29 28 27 24 21 22 18 16 15 13 13 12 12 11 12 14 14 14 12 12 10 11 12 15 13 12 9 11 11 13 12

GFSGL_sfc_temp_015.txt.gz
Temp
52 52 50 50 49 47 46 45 45 44 45 45 45 44 43 42 41 40 39 40 39 39 38 39 40 42 41 40 41 41 41 40 34 36 38 40 41 41 45 44 46 45 45
53 52 51 50 48 46 45 45 44 45 45 44 43 42 42 41 40 39 38 37 36 35 36 35 36 41 37 37 37 37 37 36 36 30 33 35 37 40 39 40 47 52 48
53 51 50 49 49 45 46 45 45 44 43 42 42 41 41 40 40 39 37 36 35 35 35 34 35 35 34 35 36 33 33 38 32 30 29 34 34 36 39 37 40 42 48
51 49 47 46 48 47 45 44 46 45 43 42 42 42 41 41 39 38 37 34 33 34 34 34 34 34 33 33 36 34 35 31 31 29 29 30 31 35 34 33 32 36 37
50 49 47 47 47 44 45 45 44 44 43 43 41 40 40 40 39 33 33 31 30 30 31 33 34 35 38 37 36 35 33 30 28 28 27 28 28 28 29 30 29 30 33
48 50 47 45 45 44 43 43 44 41 42 41 39 39 36 40 36 36 33 29 30 30 28 30 31 34 34 36 37 35 34 31 28 26 26 25 26 27 30 27 27 26 26
49 49 45 45 43 43 45 44 43 39 39 39 36 36 35 34 37 37 35 30 28 27 27 28 30 34 32 32 34 35 34 35 32 30 28 27 27 28 28 27 26 25 25
45 45 44 43 42 43 42 43 40 39 39 35 34 33 32 36 37 37 34 28 27 28 28 29 28 28 30 31 30 29 29 30 31 32 30 30 29 30 31 32 31 31 28
44 43 42 41 41 41 41 41 41 39 34 33 33 32 31 31 35 34 31 27 27 27 29 29 29 29 31 32 29 27 27 29 35 36 36 35 35 35 34 32 28 28 27
42 43 41 39 38 38 36 38 38 36 34 32 32 31 33 29 35 35 30 27 23 25 26 28 30 30 30 30 27 25 24 26 28 28 28 29 31 31 33 31 30 27 27
43 43 42 40 39 39 39 39 36 32 30 27 27 28 30 30 28 33 31 26 25 24 24 25 27 29 30 30 31 27 25 28 28 26 25 26 28 29 30 32 31 29 27
41 40 39 39 40 43 37 35 32 29 28 25 17 21 24 25 31 30 30 29 28 23 23 25 25 28 29 29 28 29 29 28 24 24 24 25 26 27 30 32 32 32 34
38 37 37 38 39 38 33 30 29 28 23 23 25 18 21 24 22 28 27 28 28 24 25 25 27 28 27 27 28 28 27 27 26 25 25 26 28 29 31 31 31 32 32
36 35 35 34 34 34 33 31 28 22 21 25 22 20 17 20 19 22 23 19 26 25 24 24 25 25 25 25 25 26 26 25 25 24 25 26 29 29 30 30 29 32 30
35 34 31 30 31 32 31 28 27 26 24 21 19 19 9 8 19 27 27 25 24 24 23 22 22 22 21 22 23 24 24 25 24 24 24 25 27 27 27 29 31 27 25
31 30 28 27 26 29 28 27 32 31 32 32 30 18 14 25 29 30 29 29 28 26 21 19 18 18 19 20 20 21 22 23 23 23 24 25 25 25 26 27 25 24 25
31 31 27 27 26 25 24 24 20 27 33 33 31 30 29 29 30 29 28 28 27 25 18 18 17 16 17 19 19 20 19 23 23 22 23 23 24 25 25 25 25 25 25
30 28 26 24 23 23 28 29 27 25 17 23 29 30 29 30 30 29 28 24 14 17 17 17 17 17 18 18 18 18 19 20 21 20 21 21 23 23 20 22 22 18 23
30 27 23 20 20 28 27 27 27 26 25 21 21 23 21 28 28 28 27 10 8 9 13 17 17 17 17 17 16 16 17 17 16 17 18 19 20 23 22 19 19 19 21
29 27 24 21 23 27 27 26 26 25 25 23 19 15 14 13 6 4 5 3 3 7 7 12 16 17 15 15 15 15 15 14 14 14 14 15 18 21 20 21 22 19 17
25 25 23 23 24 27 26 26 25 25 25 23 18 13 12 10 7 6 7 5 5 6 3 7 8 11 13 13 15 14 13 11 11 11 12 13 14 17 19 21 19 19 20
22 22 22 21 27 27 27 26 26 24 24 23 19 16 12 6 11 10 7 6 5 6 6 6 6 8 12 13 13 10 11 7 9 10 10 11 12 16 16 17 18 13 15
20 18 23 27 28 25 25 26 26 24 23 24 23 16 13 11 9 10 8 5 6 6 5 5 2 5 6 10 9 11 9 9 10 9 9 10 12 15 13 12 12 14 9
19 17 21 26 18 18 25 27 26 26 24 18 20 22 14 14 9 9 7 5 5 4 3 4 5 6 7 7 9 10 11 8 9 10 9 10 12 13 11 13 13 11 9
20 18 17 18 18 21 20 24 27 26 26 16 15 18 18 12 11 8 6 5 6 4 5 3 3 6 6 7 9 10 10 10 9 10 10 10 10 10 10 11 8 9 5
24 22 22 26 18 21 20 23 23 25 26 25 19 17 19 14 13 12 8 7 6 4 5 2 4 5 6 5 8 11 10 11 9 10 10 11 8 8 8 7 8 7 8

GFSGL_sfc_temp_018.txt.gz
Temp
50 50 48 48 47 44 44 43 43 43 44 46 43 42 41 40 39 37 36 36 35 34 34 34 34 35 34 34 34 36 36 37 34 34 36 37 37 37 40 40 43 43 43
50 49 48 47 46 45 44 44 43 45 46 44 44 43 41 40 38 37 35 35 34 33 33 32 32 37 32 32 32 33 32 34 31 29 31 33 34 37 37 36 42 47 45
48 48 48 47 45 44 44 43 44 43 43 43 41 42 41 40 38 36 35 33 32 32 31 31 31 31 30 30 30 31 32 35 32 30 28 30 32 34 34 35 36 36 43
48 46 45 44 43 42 42 43 43 41 41 43 42 42 40 39 37 35 34 31 31 31 31 31 30 29 29 29 30 30 32 29 30 29 28 28 29 32 32 30 29 31 32
46 44 43 43 43 43 42 40 41 42 41 41 41 39 37 37 37 32 32 31 30 29 30 30 30 32 35 34 33 31 30 27 28 28 27 26 27 26 27 29 27 27 30
44 43 44 43 43 42 41 40 39 40 41 41 39 37 35 38 36 36 35 29 30 29 27 29 29 32 32 33 33 34 34 29 27 28 26 26 25 25 26 26 25 23 23
43 43 42 42 41 40 40 40 40 38 38 37 36 36 32 33 37 37 35 31 28 27 26 27 28 32 30 29 31 32 32 33 31 30 28 26 25 26 27 25 24 24 24
41 41 41 40 39 39 39 38 38 37 38 35 33 31 31 33 35 34 34 27 26 26 27 27 27 27 28 29 29 28 29 30 30 31 29 28 28 29 28 29 28 28 30
40 40 40 39 38 37 35 34 35 35 33 32 31 31 29 28 34 34 29 24 25 25 27 27 28 27 29 31 28 27 26 28 33 34 34 32 33 33 33 31 28 28 25
40 40 40 39 37 36 35 34 33 33 33 32 31 29 31 26 32 33 30 22 19 23 25 27 28 28 29 29 27 26 25 26 26 26 26 28 30 30 32 29 27 24 24
40 40 39 38 37 37 37 36 32 31 30 26 26 26 27 28 26 31 30 25 23 23 23 24 26 28 29 30 30 26 26 28 27 26 25 25 26 27 28 29 29 26 25
38 38 36 36 37 37 32 30 30 28 27 24 13 18 22 23 29 28 29 29 28 22 23 24 25 28 28 28 27 28 29 27 25 25 24 24 25 26 29 30 30 31 30
36 34 34 34 34 33 30 28 27 26 22 22 24 16 20 23 21 27 27 28 27 23 24 26 27 27 27 26 27 27 26 25 24 22 24 25 27 29 30 30 31 32 32
34 32 32 31 31 31 30 30 26 21 19 24 21 19 16 19 19 20 22 18 25 25 23 23 23 25 24 24 24 25 24 24 24 23 24 26 28 28 28 30 28 30 30
33 32 30 29 29 29 29 28 26 26 24 21 19 18 7 6 17 28 27 24 24 21 16 19 20 19 19 21 21 22 23 24 23 23 24 24 26 27 27 28 28 26 23
31 30 27 26 24 27 29 28 32 31 31 32 30 18 14 23 29 30 29 28 27 25 15 14 15 15 16 18 17 18 20 21 22 22 22 22 23 24 25 26 24 23 24
30 31 27 27 26 24 23 23 18 26 31 32 32 31 30 29 30 30 29 27 26 22 9 9 11 14 15 17 17 17 16 18 20 20 20 20 21 23 23 21 20 21 23
32 29 25 25 23 24 19 28 20 18 14 17 26 30 30 29 29 29 27 23 12 13 10 8 13 15 15 16 16 15 16 15 15 16 17 17 18 21 21 20 20 14 18
32 25 21 18 21 21 20 23 23 21 22 19 16 20 19 27 27 27 25 8 6 7 9 10 8 13 14 14 13 13 10 11 10 11 13 14 15 18 19 21 18 14 15
33 27 20 20 19 23 21 20 25 22 19 21 14 13 12 12 6 2 0 -2 -1 5 4 8 8 9 7 11 9 9 10 9 9 9 9 10 12 16 17 18 18 18 15
30 30 27 27 25 26 23 26 25 22 23 17 20 16 11 11 7 4 5 1 3 4 1 5 3 1 4 6 12 9 8 3 7 8 8 9 9 11 16 16 16 16 17
28 27 27 25 21 17 25 25 25 23 22 15 16 15 10 4 6 10 9 7 6 6 5 3 5 5 5 7 6 4 7 4 5 6 7 8 10 12 12 12 10 6 8
25 19 18 20 22 19 14 24 25 23 19 23 17 15 11 14 11 12 12 9 4 5 2 2 -1 3 2 -0 1 5 6 7 7 6 5 7 9 11 9 8 7 7 4
22 18 19 19 14 13 10 17 26 22 24 18 11 11 13 14 9 9 9 6 -0 2 -2 0 2 5 4 -1 -1 3 7 5 7 8 7 6 8 10 8 8 8 5 2
21 17 16 18 18 17 15 16 22 26 23 21 14 8 11 14 15 7 11 6 5 1 4 0 0 3 3 1 3 5 4 7 6 8 7 8 7 7 7 8 5 5 1
27 27 24 22 21 17 17 19 18 21 24 24 23 14 13 12 13 8 8 3 5 5 1 -0 1 4 2 2 4 5 4 6 7 9 8 9 6 5 5 4 4 5 5

GFSGL_sfc_temp_021.txt.gz
Temp
47 46 45 45 45 44 42 41 41 41 45 45 44 42 41 39 38 37 36 36 35 32 32 32 31 32 30 30 30 31 31 30 28 32 34 35 35 36 37 38 39 38 39
46 46 46 45 44 42 41 41 41 41 41 41 42 42 41 40 39 36 36 35 32 31 31 30 30 35 29 29 29 29 29 30 29 27 30 30 32 35 35 34 40 43 37
45 44 43 42 42 41 41 41 41 40 39 40 41 39 40 39 37 36 34 32 31 31 30 30 30 29 27 27 28 28 28 32 30 28 29 29 29 30 31 32 33 33 39
45 43 42 41 42 41 40 39 39 39 40 41 38 39 39 38 38 35 33 31 30 31 31 30 29 29 27 27 28 28 30 29 29 28 28 28 29 30 29 29 28 29 30
43 42 41 42 41 41 40 39 39 40 41 39 38 38 37 38 36 33 32 31 30 29 30 30 30 31 34 33 31 28 26 26 29 28 28 28 28 27 26 28 26 26 27
42 41 42 41 40 40 39 38 38 40 39 37 38 36 35 37 37 37 35 30 30 29 27 29 29 31 31 32 32 32 31 27 26 26 26 26 27 25 25 25 25 23 22
41 41 41 39 39 38 38 37 36 36 37 34 34 33 32 31 36 35 34 30 27 26 26 26 27 30 29 28 30 31 30 32 30 27 25 26 27 28 27 25 23 23 23
40 39 39 38 37 37 36 35 34 34 33 31 30 31 30 32 34 34 32 26 25 25 26 26 26 26 27 29 27 28 28 30 30 30 29 27 28 29 28 29 27 27 26
38 38 38 37 36 36 35 34 32 32 30 30 31 29 27 27 33 33 30 24 24 24 26 26 27 27 28 30 28 26 26 29 32 33 33 33 33 31 32 29 28 26 24
38 38 38 37 36 34 34 33 33 32 32 31 30 28 31 25 30 31 30 21 16 23 24 26 27 28 30 30 26 25 23 26 28 27 26 28 29 29 31 29 26 24 23
38 37 37 36 34 34 33 32 31 30 29 26 26 26 27 27 25 30 30 21 22 23 23 24 25 28 29 29 29 26 26 27 27 27 27 26 26 27 27 28 27 25 23
37 36 34 34 34 34 30 29 29 28 27 24 12 18 22 22 28 28 29 29 29 22 22 23 24 28 28 27 27 27 27 25 25 24 25 25 25 25 28 29 29 28 29
35 33 33 32 32 31 29 27 26 26 21 21 23 16 19 23 21 27 27 28 27 20 22 25 27 27 26 25 26 26 24 23 23 22 22 24 26 28 30 30 30 31 31
33 33 32 31 30 30 30 29 26 21 18 23 20 19 16 18 18 19 22 18 24 22 19 18 20 23 21 21 22 23 22 23 22 22 22 25 27 27 27 29 28 29 29
34 34 32 29 29 29 29 28 28 27 24 21 20 18 6 6 16 27 25 20 15 18 11 11 14 16 16 18 19 19 20 21 20 20 21 21 23 25 27 27 27 27 23
32 32 30 29 27 27 27 28 32 30 31 32 32 18 13 23 28 30 29 28 27 24 12 5 3 7 13 16 15 16 17 16 18 18 19 20 20 22 24 25 25 24 23
32 32 30 29 27 25 23 24 24 25 31 32 32 31 30 28 30 30 29 26 25 20 6 4 -0 5 8 15 15 15 14 14 15 16 16 16 18 20 22 22 22 23 23
32 30 29 29 29 26 23 22 18 18 15 17 25 29 31 30 29 29 28 22 11 12 8 5 3 4 7 12 14 13 12 11 10 11 13 13 14 16 18 20 20 16 18
32 30 28 27 20 21 21 18 19 17 16 17 14 19 19 29 28 27 24 8 6 6 8 9 3 6 6 7 3 8 8 7 7 6 8 10 11 14 16 18 17 15 14
32 31 27 26 23 25 26 22 22 23 16 17 12 12 12 11 6 2 -0 -4 -3 5 4 8 8 7 2 2 -2 -2 5 7 7 7 6 6 7 10 14 15 16 12 12
32 30 28 27 27 27 23 24 24 21 23 17 14 11 14 13 11 9 9 2 5 6 4 6 3 -0 0 -0 4 -1 -0 -1 6 7 7 7 5 6 11 11 12 12 14
30 29 28 28 28 19 18 22 19 20 22 16 15 12 11 7 11 12 9 9 7 7 7 5 5 5 4 5 3 -5 -3 -5 1 5 5 7 8 9 9 8 7 4 9
31 29 26 23 20 16 12 15 16 18 24 19 19 17 9 9 12 12 11 11 5 5 5 3 1 3 1 -3 -4 1 -0 -1 -0 1 4 5 7 9 7 5 7 6 5
30 28 24 20 14 14 11 12 12 17 20 21 19 13 12 11 11 10 10 9 2 2 -1 1 4 6 4 -2 -5 -2 3 -1 -1 1 1 5 7 9 6 7 7 5 3
30 27 23 20 18 17 16 15 16 17 24 24 17 19 18 14 10 11 9 8 6 0 5 3 3 5 5 4 1 3 0 3 -0 0 1 3 4 5 7 6 3 6 3
31 28 26 27 25 23 22 21 22 22 21 22 23 21 19 18 18 15 12 7 7 6 6 1 3 5 5 3 3 3 1 2 -1 1 -1 4 4 6 5 5 4 4 6

GFSGL_sfc_temp_024.txt.gz
Temp
45 44 44 43 43 42 41 40 40 41 43 41 41 40 39 40 39 37 36 35 33 33 32 32 31 31 30 30 30 29 29 29 25 29 34 36 35 36 39 39 40 39 39
44 44 43 42 42 41 40 40 40 39 39 39 39 41 42 39 37 37 34 35 33 32 31 31 31 34 30 29 29 28 28 29 27 25 30 31 32 36 36 35 39 43 39
44 43 42 41 40 39 39 40 40 38 37 38 42 41 37 37 36 35 34 34 32 31 30 30 30 30 28 28 28 27 28 30 29 28 28 32 32 33 34 34 34 35 39
43 41 40 40 39 39 39 39 38 37 37 40 40 39 37 37 36 35 34 32 31 31 31 30 30 29 28 28 28 28 29 28 28 27 27 30 30 32 32 32 31 33 34
42 41 40 39 39 39 38 38 37 37 38 39 38 38 36 36 36 33 32 31 30 29 30 30 30 31 34 33 31 29 28 26 26 26 26 28 29 29 29 32 30 30 31
40 39 40 39 39 38 37 36 36 36 39 38 37 34 31 36 36 36 33 29 29 28 26 28 28 30 30 31 31 31 31 26 25 25 26 25 26 29 29 28 27 26 26
39 40 39 39 37 36 36 35 35 36 37 32 31 31 30 31 35 35 34 29 27 26 26 26 26 30 28 28 28 30 30 31 29 28 26 26 27 29 30 29 28 26 26
38 39 38 37 35 35 34 34 33 32 32 30 29 30 29 31 34 33 32 26 25 26 26 26 26 26 27 29 28 28 29 30 30 31 29 29 30 31 29 30 29 29 29
37 37 37 36 34 34 33 33 32 32 31 31 30 28 27 27 32 32 30 25 25 24 26 27 27 27 28 31 27 26 27 29 32 33 33 33 33 33 33 30 27 27 25
36 37 36 35 34 32 32 31 31 30 31 30 30 28 30 26 30 31 30 22 17 23 25 26 27 28 29 29 26 24 23 26 27 28 30 30 30 30 30 29 28 25 26
37 36 35 34 32 32 31 30 29 28 28 26 26 26 27 27 25 30 31 22 22 24 23 23 25 27 29 29 28 25 25 26 26 26 27 28 29 28 29 29 29 26 25
35 34 33 32 33 33 30 29 29 27 26 23 12 18 22 23 28 27 30 29 28 18 21 22 22 28 27 27 26 27 26 24 23 23 24 25 26 27 29 30 29 29 29
33 32 32 35 32 32 29 27 26 26 21 21 22 17 19 23 21 26 27 28 27 18 21 23 25 25 24 23 25 25 23 22 21 21 21 23 25 27 29 30 31 30 30
32 32 32 34 32 31 30 30 26 20 21 24 21 19 17 18 17 19 22 18 23 22 18 16 17 21 16 18 20 21 20 20 19 19 20 22 25 26 27 29 28 30 29
32 32 31 32 29 30 29 27 27 27 26 23 21 19 7 6 17 23 24 18 13 17 10 9 11 12 15 17 17 18 18 17 17 18 18 19 21 23 25 27 27 27 26
30 30 32 32 29 29 28 27 32 30 31 32 32 19 14 23 28 30 30 28 27 23 12 5 -0 -1 5 13 14 15 15 14 14 16 17 18 18 19 22 25 25 25 25
30 32 32 30 30 26 25 25 20 25 32 32 32 33 30 25 29 30 29 27 25 20 7 5 -3 -3 1 11 13 14 13 13 14 13 14 15 16 18 20 21 22 22 23
31 31 30 30 28 28 28 26 23 19 16 16 25 29 31 32 31 30 29 23 12 12 9 6 3 3 7 10 11 10 12 11 10 10 10 11 12 15 17 18 19 16 19
32 31 30 28 28 26 23 24 21 17 20 18 15 19 17 30 30 28 26 11 8 8 9 10 5 7 8 9 1 0 -2 7 8 6 7 8 8 12 15 16 16 13 14
33 32 30 27 25 25 25 21 21 21 23 19 17 16 11 12 8 4 1 -2 -1 8 7 10 10 9 6 5 -1 -5 0 -1 6 8 7 7 7 8 11 12 14 14 16
32 32 29 28 26 25 26 21 20 24 23 24 18 10 12 17 14 10 9 3 7 8 7 8 7 4 3 2 6 1 1 -3 1 5 7 8 8 7 10 11 11 13 15
30 31 29 28 28 26 27 23 18 18 20 22 20 14 14 16 12 12 11 10 10 10 10 8 8 8 8 9 7 -2 -1 -2 -2 0 3 7 9 10 10 9 9 9 11
30 30 30 28 27 25 12 15 15 15 16 17 19 18 13 12 12 13 13 12 10 8 7 6 5 6 6 2 1 5 4 5 4 -1 -1 1 7 9 9 9 10 10 9
30 30 30 27 24 22 17 16 15 14 17 19 19 18 18 16 14 14 14 13 10 5 1 4 7 8 8 1 -0 1 6 3 2 4 -1 1 4 8 9 10 10 9 9
31 31 30 25 22 22 21 19 19 19 20 21 22 22 21 20 20 16 16 14 12 8 7 4 5 7 8 7 5 5 2 5 0 -0 2 2 1 1 5 9 8 10 8
31 31 30 28 24 24 25 24 23 24 24 24 24 23 23 22 21 21 19 15 13 12 12 8 7 7 7 7 7 5 0 1 0 -1 -1 5 3 4 3 6 8 9 10

GFSGL_sfc_temp_027.txt.gz
Temp
55 54 54 54 54 54 53 53 52 52 54 52 50 50 48 46 48 48 47 46 45 45 44 43 42 42 42 42 41 40 39 38 33 37 40 42 41 42 43 46 48 48 49
54 54 54 54 54 53 52 52 52 50 50 49 48 48 48 48 48 46 45 45 43 42 42 41 41 41 40 40 39 38 37 38 34 32 37 38 38 41 41 42 45 47 49
56 55 54 52 51 50 50 50 50 49 48 48 47 47 45 44 45 45 43 42 41 41 41 40 39 39 38 38 38 36 36 35 33 32 32 37 38 40 39 41 43 44 47
54 53 51 50 49 49 49 49 48 47 46 47 46 45 44 45 44 43 41 41 40 40 39 38 37 36 36 36 34 33 33 32 32 30 32 33 35 37 36 36 38 43 43
52 50 49 49 49 48 48 47 46 46 46 44 41 42 43 43 43 41 41 39 39 38 37 36 36 34 33 33 33 33 32 30 30 30 30 31 32 34 33 37 35 37 38
50 48 48 48 47 47 46 45 45 44 45 44 41 41 40 41 36 36 37 38 37 35 34 35 35 33 33 31 31 31 32 30 29 30 30 29 32 31 35 34 34 32 31
47 47 47 46 46 45 45 45 44 43 43 42 41 40 39 39 35 35 34 37 35 34 33 33 33 34 32 33 32 32 32 32 31 30 28 31 31 34 34 32 33 32 32
46 46 45 45 44 44 43 43 43 43 42 41 39 39 38 37 33 33 32 35 34 33 33 33 32 32 32 31 30 31 32 34 34 33 32 33 35 36 35 34 32 33 36
45 45 45 44 43 43 42 42 42 42 42 40 39 37 36 36 32 32 33 33 32 32 32 33 32 31 30 30 30 28 30 32 34 34 33 33 33 33 34 33 30 29 30
45 45 45 43 42 41 41 41 41 41 40 40 37 37 33 34 30 31 32 32 29 30 31 32 29 29 29 29 28 27 25 29 30 32 33 34 34 34 32 33 33 29 31
44 44 44 43 41 41 41 41 40 40 38 35 34 34 34 33 33 30 30 31 30 29 29 29 30 27 29 28 28 28 26 28 28 29 31 33 34 34 34 34 34 33 31
43 42 42 41 41 41 40 40 39 38 35 33 30 31 34 32 30 30 30 30 30 28 27 28 28 27 27 26 27 27 25 26 27 27 27 29 29 30 33 34 34 34 36
40 40 41 40 40 41 39 39 38 37 34 33 33 32 33 33 33 29 29 29 29 28 28 27 25 25 25 26 24 24 24 25 24 24 24 26 27 29 31 32 34 34 34
38 40 41 39 39 40 39 39 37 35 34 33 33 32 33 32 32 32 31 32 28 28 26 27 23 23 22 23 25 25 24 23 22 22 23 26 28 29 30 31 31 32 32
37 38 38 38 38 37 38 38 36 37 36 35 34 33 30 30 31 30 30 30 30 27 23 25 24 23 23 24 24 24 23 22 22 22 23 24 26 27 28 30 30 31 30
35 37 37 37 36 36 36 36 34 32 31 32 32 30 32 30 29 30 30 30 28 24 25 23 21 20 20 21 21 22 22 20 20 21 22 23 23 24 26 29 30 29 28
35 35 37 34 36 34 34 33 32 35 32 33 33 33 33 32 29 30 31 30 27 25 24 24 21 20 20 22 21 21 20 20 18 19 20 20 21 23 25 26 27 28 28
35 33 35 36 36 35 34 34 33 31 30 32 32 32 32 32 32 31 30 29 27 25 25 24 22 22 22 22 22 21 20 20 19 18 19 19 19 21 22 23 25 24 26
36 35 34 34 33 33 33 32 32 31 31 31 32 28 29 29 31 32 30 28 27 27 26 25 25 23 23 23 21 19 18 18 16 16 17 17 18 19 21 21 22 21 22
37 34 34 34 33 32 32 31 31 31 31 30 30 30 32 25 28 29 28 27 26 26 27 26 26 25 24 23 21 20 19 20 18 18 17 17 18 18 18 19 20 21 23
37 35 33 33 32 33 32 31 31 31 31 31 31 31 27 29 30 30 29 27 26 27 27 27 26 25 24 22 22 21 20 19 18 17 17 18 17 17 18 20 20 21 21
34 34 33 32 33 32 32 32 31 31 31 30 30 31 23 24 28 29 29 29 28 27 28 27 27 26 25 24 23 22 20 18 19 18 17 16 17 19 18 18 18 20 20
33 32 33 32 32 32 31 31 30 30 30 30 30 30 30 27 27 28 29 29 29 27 27 26 25 25 25 22 22 22 20 20 20 17 15 16 17 18 18 18 18 18 18
32 32 33 32 32 32 30 30 29 27 28 29 29 29 30 30 29 28 28 29 28 27 26 23 23 24 25 23 22 21 21 20 19 18 14 15 16 17 17 18 18 17 17
31 31 32 32 32 31 30 29 29 29 29 29 29 29 30 30 30 29 29 28 27 26 25 21 22 23 21 20 21 20 20 16 16 13 16 15 15 14 15 17 16 18 16
31 31 31 31 32 32 30 30 30 30 30 30 30 30 30 30 30 30 30 29 27 25 25 24 23 21 21 21 21 18 14 12 14 9 15 16 16 17 17 16 15 17 16

GFSGL_sfc_temp_030.txt.gz
Temp
65 63 62 62 63 63 61 59 59 58 58 57 56 55 55 55 55 53 52 51 50 49 49 48 48 49 48 48 48 47 45 44 38 42 45 47 45 45 47 47 47 49 51
63 62 61 62 62 60 59 58 58 56 56 55 55 54 54 53 52 50 49 49 48 47 48 48 47 49 46 47 46 44 43 42 38 35 40 40 41 43 44 44 46 49 49
62 62 62 61 59 58 57 57 56 55 54 54 54 51 49 50 50 50 49 47 47 47 47 46 45 45 43 44 43 42 40 39 39 36 35 39 40 42 41 42 41 42 48
62 62 60 59 58 57 56 55 54 54 53 53 52 50 49 50 49 49 48 47 47 47 46 45 43 42 41 40 39 40 39 37 37 35 35 35 37 39 41 39 39 42 42
60 60 58 58 57 56 54 54 53 52 52 52 50 48 48 48 49 47 47 46 46 45 44 44 43 39 35 35 36 36 35 33 33 32 33 34 35 37 35 39 37 40 42
58 57 57 56 55 54 53 51 51 51 51 51 49 48 47 48 35 36 37 44 44 43 42 42 42 39 38 34 33 33 33 32 30 31 31 31 33 36 37 35 36 34 32
57 56 55 53 52 52 52 51 51 50 50 48 47 47 46 46 35 34 34 42 42 41 40 40 40 40 37 37 34 33 33 33 31 33 30 32 33 35 36 35 36 35 34
55 54 53 52 51 51 51 50 50 50 49 48 47 47 46 44 34 33 33 41 41 40 40 39 39 38 38 33 32 32 35 36 37 36 35 35 36 37 35 35 36 36 38
53 52 52 52 50 50 49 48 48 48 48 47 47 46 44 43 33 32 33 39 39 38 39 39 37 36 32 30 31 30 33 36 37 35 34 34 34 34 35 35 32 32 30
52 52 52 51 50 49 48 47 48 48 47 47 46 45 39 41 33 32 33 37 34 36 38 38 34 32 29 30 29 29 28 31 33 33 34 37 37 38 35 36 35 30 31
51 51 51 51 49 49 48 48 48 47 45 43 40 42 42 40 39 31 31 33 34 34 35 35 36 30 29 28 28 29 28 29 30 31 32 35 37 37 37 38 37 33 32
49 49 50 49 48 48 47 47 47 46 43 41 34 37 41 39 34 33 31 31 31 31 31 35 32 28 27 27 28 26 26 27 30 28 29 30 31 31 34 35 35 36 37
47 47 47 47 46 47 46 46 44 44 42 40 39 38 38 39 38 32 31 30 30 31 32 30 27 27 28 29 28 26 27 29 27 26 27 28 30 32 34 33 35 36 37
45 45 46 45 45 46 46 42 42 41 40 39 38 36 37 37 37 37 36 35 32 31 33 32 29 25 28 28 31 31 30 28 26 26 26 29 31 31 32 33 32 33 34
43 43 43 43 44 44 45 42 41 43 41 38 37 37 34 32 34 35 33 34 33 32 28 30 31 30 30 31 31 30 30 29 27 26 26 27 28 29 30 32 32 33 31
40 41 42 42 42 42 42 41 36 34 34 34 33 33 35 34 32 31 31 31 31 29 29 30 29 28 28 29 28 28 29 28 27 26 26 27 26 26 27 30 31 30 30
39 40 42 39 40 39 39 37 35 37 34 33 33 33 33 33 33 31 31 31 31 28 28 31 29 28 28 29 29 28 27 27 26 26 25 26 26 26 27 27 28 29 29
40 35 40 39 37 36 36 36 36 33 33 35 33 34 33 33 33 32 31 31 30 27 29 30 29 29 29 30 30 28 28 27 26 26 25 24 24 25 26 26 26 25 27
41 41 39 36 36 36 36 35 35 34 33 34 35 32 33 32 32 32 33 31 30 30 32 33 31 31 31 30 29 27 25 25 23 24 25 24 24 24 24 26 27 26 26
42 36 35 38 37 35 34 34 33 33 33 34 33 34 37 31 31 31 31 31 30 30 32 32 33 32 31 30 28 27 26 26 26 25 24 24 24 25 24 24 25 25 27
42 40 37 38 37 37 35 35 35 34 33 33 33 34 33 34 32 32 32 31 31 31 32 32 32 31 30 29 29 28 27 26 26 24 24 24 23 23 25 25 24 25 26
38 37 36 35 35 35 34 35 34 33 33 33 34 35 33 32 32 33 33 32 32 33 33 33 32 33 32 31 30 28 27 25 25 25 24 22 24 25 24 24 24 23 24
36 34 34 35 35 34 33 33 33 33 33 33 33 34 34 32 32 33 33 33 34 33 33 32 31 31 32 31 30 29 27 27 27 25 22 22 23 24 24 24 24 23 22
35 33 32 32 32 34 33 32 33 32 32 32 32 32 33 33 32 32 32 32 33 32 32 31 31 31 31 30 30 29 29 27 27 25 21 21 22 23 23 23 24 22 22
33 32 32 32 32 32 32 33 32 32 31 32 32 32 33 32 33 32 32 32 32 32 32 31 31 31 30 29 29 28 28 23 23 22 23 21 21 20 21 21 21 23 22
33 33 33 32 32 32 32 32 32 32 32 32 32 32 32 32 33 32 32 32 32 31 31 32 31 29 29 28 28 27 24 20 19 17 22 23 22 22 22 21 20 22 22

GFSGL_sfc_temp_036.txt.gz
Temp
64 62 59 59 58 59 58 57 55 54 54 53 52 51 50 50 49 46 45 46 45 43 43 43 41 42 40 40 39 39 37 36 33 36 39 39 37 36 39 40 41 41 42
64 61 58 59 58 57 58 57 55 53 53 52 52 51 51 50 47 46 44 46 43 42 41 41 41 46 40 38 36 35 35 36 33 31 34 34 34 36 37 36 41 44 41
64 60 58 58 59 57 57 56 55 54 52 51 51 50 49 48 46 46 45 44 43 42 41 41 40 39 35 34 33 32 33 37 33 30 30 33 33 35 35 36 37 37 42
62 59 58 57 57 57 57 55 53 53 51 50 50 50 49 48 47 47 46 43 42 42 42 41 39 38 34 32 33 30 32 30 30 29 29 30 31 33 33 31 31 34 34
60 57 55 57 58 57 54 53 52 51 51 51 50 49 48 47 48 43 43 40 39 38 39 41 39 38 40 36 33 30 28 27 27 27 27 28 28 29 28 30 29 30 32
57 56 57 57 57 55 53 52 50 50 50 50 48 48 45 48 37 37 38 36 38 37 35 36 37 40 39 37 37 36 33 26 25 25 26 25 27 29 29 28 28 27 25
56 56 57 56 55 53 53 52 50 48 47 46 46 46 44 41 37 37 35 35 34 34 35 34 36 41 33 31 33 33 33 34 32 29 27 27 27 27 28 27 27 26 26
55 55 56 55 53 52 51 50 48 48 46 45 44 44 44 44 37 36 35 32 33 34 35 34 33 33 28 29 28 27 28 30 31 34 28 28 29 30 29 30 28 28 30
54 55 55 53 50 50 49 48 47 46 45 44 45 43 42 37 36 35 34 32 32 33 36 35 35 32 31 32 27 25 26 28 34 34 33 34 35 35 35 32 27 25 24
50 51 52 51 49 49 47 47 46 46 46 45 43 42 39 37 35 35 34 29 29 29 32 33 33 30 31 30 23 22 21 25 26 27 28 30 32 33 34 33 29 27 26
52 50 48 48 49 49 48 46 44 43 42 39 37 38 39 38 34 36 35 30 28 28 28 28 29 31 31 30 30 24 23 27 26 26 28 28 30 31 31 31 31 30 28
47 47 48 48 49 50 45 43 43 42 38 37 33 34 33 35 36 35 35 33 33 26 28 28 28 32 32 31 29 30 30 27 23 21 24 25 27 28 30 30 32 32 34
46 45 45 47 47 47 43 42 40 39 35 34 33 33 34 33 33 35 34 34 32 26 27 30 32 32 32 30 32 31 26 23 20 17 21 23 25 28 30 29 31 32 33
43 43 45 43 43 43 43 42 40 36 34 33 34 34 32 32 32 32 30 30 32 30 28 29 27 27 25 25 24 27 25 23 21 18 18 22 25 26 26 28 27 28 28
44 44 42 41 40 41 42 41 36 37 35 33 33 33 30 32 31 35 33 32 31 30 23 23 22 26 25 24 24 25 24 24 21 19 18 19 23 25 25 27 28 27 25
41 40 37 36 36 39 40 39 40 36 37 36 36 32 31 35 36 36 35 34 34 32 23 20 19 22 21 22 20 22 22 22 21 20 19 20 20 20 23 25 27 25 24
37 37 36 35 36 37 34 33 33 36 37 35 35 35 35 35 35 34 34 34 33 31 21 21 22 24 25 23 22 22 20 20 21 21 18 18 18 22 20 23 23 24 23
38 36 37 37 37 35 36 35 34 33 31 33 35 34 35 34 34 34 34 32 28 28 26 24 25 25 26 24 23 22 21 19 18 19 16 16 14 17 20 19 21 20 21
40 39 38 38 36 34 33 34 33 32 32 32 33 32 30 33 34 34 33 29 27 27 27 27 27 27 29 25 22 21 18 18 16 13 15 16 13 17 15 20 16 18 20
43 39 36 38 35 35 34 34 33 33 33 32 32 32 31 31 30 29 29 28 28 27 28 29 28 27 29 27 24 23 23 17 17 18 16 13 16 13 15 16 14 13 18
40 40 37 37 35 35 35 34 34 33 33 32 32 33 32 32 32 30 29 29 29 29 29 28 28 28 28 27 25 24 26 20 22 18 16 15 11 11 16 17 17 16 18
37 37 36 35 35 34 34 33 33 33 33 31 32 32 32 32 32 31 31 30 32 32 32 30 29 29 30 29 27 25 25 21 18 17 16 16 14 14 14 13 15 13 15
34 34 34 34 34 34 33 32 32 31 32 32 32 31 31 32 32 31 31 32 32 32 33 32 31 30 30 30 30 29 27 24 22 19 16 14 13 13 12 11 12 13 11
32 32 32 32 32 32 31 31 31 30 31 32 32 31 31 32 32 32 32 32 32 32 33 32 32 31 32 31 31 30 28 27 25 21 16 13 12 14 12 12 11 10 10
31 31 31 31 31 32 31 30 30 30 30 31 31 31 31 32 32 32 32 32 32 32 32 32 32 32 31 30 30 29 29 28 26 20 19 14 11 10 10 10 9 11 10
28 28 30 30 30 31 29 28 27 27 26 26 27 27 27 28 29 31 32 31 31 32 32 33 33 32 32 31 30 30 28 28 25 22 21 19 15 11 10 12 11 10 12

GFSGL_sfc_temp_039.txt.gz
Temp
57 55 52 52 53 55 55 54 53 52 53 50 51 48 47 46 45 43 42 43 41 39 39 39 39 40 39 36 35 33 31 30 26 29 32 32 31 32 36 36 37 37 38
58 55 52 53 56 56 55 54 53 52 51 51 49 48 48 46 45 43 42 41 40 39 39 38 38 42 35 33 31 29 29 29 27 26 28 30 29 31 33 32 37 40 38
58 56 55 55 55 54 54 54 52 51 48 49 48 47 46 45 44 44 42 41 41 40 39 38 38 36 31 30 30 28 28 33 27 25 26 29 29 30 31 32 32 33 38
55 53 53 53 54 54 53 53 49 49 48 49 47 47 46 45 46 45 44 39 38 38 37 36 37 34 32 30 31 28 30 26 26 24 26 26 28 30 28 27 28 30 31
56 54 52 53 53 53 53 51 49 49 49 48 47 46 45 44 45 42 41 38 37 37 36 37 36 38 40 35 32 27 26 25 24 24 24 25 26 26 26 28 26 28 29
54 53 53 52 53 50 49 49 48 48 47 46 46 46 44 46 39 40 38 35 36 35 32 33 34 37 36 37 36 35 32 25 22 21 24 23 25 26 28 24 25 23 22
53 53 53 51 50 50 50 49 48 46 46 45 44 44 43 39 38 38 37 35 34 33 31 31 33 36 32 30 31 31 30 32 29 25 23 25 24 26 25 25 25 24 24
51 51 50 49 49 47 47 46 46 45 44 43 42 42 42 40 37 37 36 32 31 31 31 31 30 29 29 29 27 26 26 26 28 30 26 25 26 27 27 28 27 27 28
49 49 48 48 46 46 45 44 44 46 43 42 42 41 40 37 37 36 34 31 31 31 32 32 32 28 31 32 27 25 24 25 31 32 32 32 33 33 33 30 26 25 23
45 46 46 46 46 44 43 44 44 43 43 42 41 39 39 34 36 36 34 28 28 28 30 30 33 29 31 31 23 21 19 23 25 25 26 27 30 30 32 29 25 23 24
47 47 47 46 44 44 44 43 42 40 39 36 35 35 37 34 33 36 36 30 29 28 28 27 27 31 31 32 31 23 21 26 26 25 24 25 27 27 29 30 28 27 25
46 45 44 44 44 45 42 40 40 39 35 35 31 31 31 33 33 35 36 34 32 25 27 27 27 33 33 32 30 30 30 28 17 19 20 22 22 24 27 28 28 28 30
42 40 40 42 43 43 40 38 36 35 32 32 30 28 30 31 31 35 35 35 33 26 26 28 31 33 32 30 31 31 27 22 17 13 17 18 19 24 26 26 28 28 29
39 39 39 38 39 39 38 37 34 30 28 30 29 30 29 28 30 27 30 32 33 30 27 27 24 25 22 23 24 27 24 21 19 17 15 18 20 20 20 23 23 24 24
39 38 37 36 35 35 36 35 33 32 31 29 29 29 26 25 31 33 31 28 26 28 19 22 25 20 21 23 22 23 22 21 19 15 14 16 19 20 20 22 24 25 21
35 34 31 31 31 32 33 34 36 35 36 36 36 31 30 34 35 36 34 33 33 31 25 21 15 12 16 21 22 21 19 19 19 18 14 16 16 16 19 22 23 21 20
33 32 31 31 31 31 31 30 34 33 36 36 36 35 35 36 35 35 35 34 33 30 20 16 12 14 18 23 24 21 19 19 19 17 15 13 14 17 16 19 18 20 20
33 32 32 32 31 32 32 33 33 30 30 29 32 34 35 35 35 35 34 32 28 29 24 20 19 19 22 24 25 22 19 17 16 15 11 8 6 11 12 16 18 11 18
35 31 32 33 33 33 34 34 32 32 28 29 29 27 28 34 35 34 33 30 27 24 25 25 23 23 23 24 23 22 16 14 11 8 8 8 7 10 10 14 14 12 12
35 31 31 34 33 33 31 33 32 31 31 30 30 28 27 22 28 30 31 30 28 26 25 25 26 25 25 26 26 23 18 15 12 10 10 11 3 6 7 8 10 9 14
31 31 29 31 32 32 32 31 33 31 31 31 32 29 28 30 30 30 29 29 29 28 27 26 26 26 26 27 25 24 23 20 19 17 15 9 2 7 9 9 8 14 14
29 29 29 29 30 30 31 33 31 31 27 26 27 25 27 31 30 30 31 30 30 30 30 29 28 28 27 27 27 24 23 21 18 16 13 9 10 8 7 8 6 6 10
24 25 26 27 28 28 30 31 30 27 23 24 24 28 31 31 29 29 30 32 32 31 31 31 30 29 29 29 29 28 26 24 23 22 17 12 10 8 4 7 7 6 6
24 24 24 24 26 27 28 28 29 26 27 26 26 26 29 30 29 28 30 32 32 32 32 32 31 30 30 30 30 30 29 28 25 24 21 15 13 10 5 6 6 4 4
20 20 19 19 21 22 24 24 25 25 23 23 22 21 22 24 25 26 28 30 32 32 32 32 32 32 31 31 30 30 30 28 26 23 21 17 12 9 5 6 4 7 4
16 17 14 15 15 17 18 19 20 19 19 18 18 17 19 21 22 22 23 22 22 24 30 31 32 32 32 31 31 30 29 28 25 23 22 19 15 8 6 6 5 5 8

GFSGL_sfc_temp_042.txt.gz
Temp
57 52 52 51 51 54 53 52 51 50 51 50 49 48 48 44 44 42 41 42 40 39 38 38 38 38 35 33 33 31 29 29 25 27 29 29 28 28 32 33 34 34 35
55 54 52 54 55 54 53 52 51 51 51 48 47 47 46 45 43 42 40 40 39 38 38 38 37 41 34 33 31 29 28 28 26 24 25 26 27 29 29 29 34 38 34
54 55 55 54 54 52 52 51 49 48 48 47 47 46 46 44 43 42 41 40 39 39 38 36 37 36 33 31 31 29 27 32 26 24 25 26 26 27 28 29 29 30 35
55 56 54 53 53 52 51 48 48 47 45 46 46 45 45 43 44 44 43 40 39 38 37 36 36 35 33 31 31 28 28 26 25 24 25 25 25 28 27 25 27 29 29
53 54 52 52 50 50 48 47 46 46 47 46 45 46 45 44 45 43 42 38 36 36 36 36 36 36 39 35 30 27 26 24 23 23 23 24 25 25 24 26 25 26 27
51 49 50 51 50 49 47 47 47 47 47 46 46 45 43 45 42 41 39 36 37 35 33 33 33 36 36 37 36 34 30 24 22 20 22 21 23 23 24 23 23 22 22
52 51 50 49 47 46 47 46 46 45 46 45 43 43 42 42 40 40 38 35 34 33 32 32 33 36 33 31 33 32 30 31 27 22 20 21 21 24 24 23 24 24 23
49 48 47 45 45 45 44 44 43 44 43 42 42 41 40 41 38 38 37 33 32 32 32 32 30 29 29 29 27 26 27 27 27 28 24 23 24 26 27 28 27 27 27
44 44 45 44 44 44 42 42 43 42 41 40 40 39 38 38 38 37 35 32 31 31 33 33 31 29 31 33 27 26 25 25 31 32 32 32 32 32 32 28 24 22 21
42 44 45 44 43 42 41 40 39 38 39 39 39 38 38 36 37 37 35 31 30 29 29 31 34 30 32 32 24 22 19 24 25 25 26 27 28 28 30 27 25 22 22
45 44 43 42 41 41 39 38 38 37 36 33 33 33 33 34 33 37 36 30 30 29 29 28 28 33 32 32 32 23 21 26 25 25 24 24 25 26 27 28 27 24 23
43 42 41 41 41 42 37 36 36 34 32 32 27 31 30 32 34 35 36 35 32 28 29 30 28 32 33 32 31 30 31 27 19 18 19 20 21 22 25 25 26 27 27
39 38 38 38 38 38 35 33 32 31 28 29 29 28 28 32 32 35 35 35 34 29 29 30 31 32 33 31 32 31 26 21 18 12 18 17 19 21 25 24 26 26 26
36 36 36 35 35 34 34 33 31 27 28 30 29 29 28 28 28 29 30 31 35 31 29 30 28 26 22 23 22 26 24 21 20 19 15 16 18 18 19 20 20 22 22
36 36 34 33 33 32 33 32 32 32 31 30 28 28 26 27 29 33 31 29 29 31 28 25 24 22 21 22 22 23 22 22 20 17 14 14 16 18 18 20 20 21 18
34 33 31 31 30 31 31 33 35 34 35 35 35 30 29 33 34 35 35 34 33 32 27 24 24 22 22 22 20 20 20 20 20 19 14 15 15 14 15 19 20 17 17
31 31 31 31 31 31 32 31 30 35 35 36 36 36 35 36 35 35 35 35 33 32 27 20 23 20 20 21 22 22 22 21 20 20 17 15 13 15 13 16 16 16 16
31 31 29 29 30 31 32 33 33 31 31 32 34 33 34 35 35 35 35 34 31 31 27 23 22 20 20 21 22 21 22 18 18 18 14 10 4 9 10 13 15 8 14
31 30 29 29 29 29 30 31 33 33 32 32 33 29 29 33 34 34 34 31 30 27 28 25 24 23 22 22 21 19 18 17 16 11 13 9 2 9 8 10 10 10 10
29 27 27 28 28 27 28 28 29 30 31 31 31 28 24 20 19 26 27 31 31 29 27 27 27 25 24 22 22 21 16 17 17 14 10 7 2 5 6 5 4 6 13
24 25 24 26 25 26 26 26 26 27 28 31 31 28 23 24 27 30 30 29 31 30 28 27 27 26 26 24 24 23 22 20 21 20 16 13 6 6 9 6 5 9 12
22 22 24 24 25 23 24 26 27 27 29 29 29 23 19 20 28 30 31 30 28 29 30 29 28 27 27 27 26 25 23 22 21 19 16 13 12 9 6 6 5 3 7
20 19 19 19 19 19 20 23 23 22 24 26 26 25 24 23 25 27 29 27 28 31 31 30 30 28 29 28 28 27 24 24 24 22 19 14 11 11 4 5 5 4 4
15 16 14 13 14 14 15 16 18 18 18 19 19 19 20 20 20 23 24 23 23 24 31 32 30 30 29 29 29 29 28 28 27 24 24 19 16 12 7 5 5 2 2
10 11 9 9 10 10 11 13 13 13 14 15 15 16 16 18 17 16 17 18 19 20 21 24 31 31 31 30 29 29 29 29 27 26 24 22 19 16 13 10 4 5 2
10 10 8 7 7 8 8 9 9 10 10 11 13 13 13 15 14 13 14 14 16 18 20 20 23 30 31 31 31 30 29 29 27 26 24 22 19 15 13 12 9 4 6

GFSGL_sfc_temp_045.txt.gz
Temp
54 52 51 52 52 53 52 51 50 50 49 49 47 48 47 45 42 41 40 41 40 38 38 38 38 38 36 35 34 32 30 29 26 27 28 28 27 27 29 29 31 30 31
53 51 51 52 53 52 51 50 49 48 50 48 47 46 46 44 42 41 41 41 38 37 37 36 37 40 35 34 32 31 29 29 27 25 25 25 26 27 27 26 31 35 32
52 51 51 51 51 50 49 50 48 47 45 44 44 46 45 43 43 41 40 38 38 37 37 36 37 35 32 31 30 29 28 31 27 24 24 25 25 25 27 27 28 29 33
52 51 50 49 49 49 48 48 47 47 45 46 47 46 45 45 42 41 40 38 38 37 36 36 35 34 33 31 31 29 29 26 25 23 23 25 24 26 25 24 25 28 28
51 51 47 48 49 49 47 45 45 46 46 47 46 45 44 43 43 41 41 38 36 35 35 36 34 35 38 34 31 27 26 24 23 22 22 23 23 23 22 24 23 25 26
49 48 49 50 49 46 46 45 45 45 47 45 43 44 43 44 41 41 39 35 35 34 33 33 35 37 36 38 37 35 29 24 22 20 21 20 21 21 22 21 22 22 22
48 49 48 47 45 45 45 45 44 43 42 42 43 42 41 40 40 41 39 34 33 32 32 32 32 35 35 32 35 34 33 32 27 22 19 20 20 22 23 22 23 24 23
46 46 44 43 42 43 44 42 41 41 40 39 38 38 37 39 39 39 38 32 31 32 32 33 30 32 31 30 28 27 27 27 28 28 24 23 23 25 25 27 26 26 26
43 44 44 44 44 43 41 41 41 40 38 36 37 36 35 35 38 38 35 30 30 31 32 31 32 30 32 34 27 26 26 27 31 32 32 32 32 32 31 23 21 21 20
43 44 45 44 42 41 40 40 37 36 36 36 36 35 36 34 37 38 36 29 29 30 29 31 35 31 32 33 26 23 20 25 25 25 25 27 28 27 30 26 23 20 20
44 43 43 41 41 40 37 36 35 34 33 31 32 32 32 32 33 37 37 30 30 30 30 30 31 33 33 33 32 24 22 26 25 24 25 24 25 25 27 27 26 22 20
43 41 39 38 39 39 35 34 33 32 30 30 27 30 30 31 34 35 36 36 33 29 30 30 31 33 34 33 31 30 31 26 22 20 19 20 20 21 25 25 25 25 25
38 37 36 36 36 35 33 32 31 30 28 29 29 29 31 30 29 34 35 35 35 30 31 31 32 33 33 32 32 32 28 23 20 13 17 19 17 21 24 23 25 25 25
35 35 34 33 33 33 32 31 30 28 29 31 31 31 30 30 28 28 29 29 33 33 30 30 30 29 28 27 26 28 24 22 21 20 17 16 17 17 17 19 17 19 20
33 32 32 31 31 32 32 31 32 32 32 33 32 31 31 30 31 32 30 27 27 29 31 29 27 26 25 25 25 24 23 21 19 16 15 15 16 17 16 17 18 19 14
32 31 29 29 29 30 31 31 35 34 35 35 35 33 34 34 34 35 34 35 35 33 29 27 25 24 24 25 23 23 21 19 22 19 16 17 17 15 14 17 18 14 14
29 30 29 29 28 28 28 28 27 32 35 35 35 35 35 35 36 34 33 34 34 34 29 27 25 25 25 25 24 22 22 21 22 20 18 17 16 15 13 14 14 14 13
28 28 25 26 26 26 25 25 26 25 25 28 34 35 36 35 34 34 33 33 31 32 30 29 26 26 25 24 23 23 22 21 17 17 14 14 12 11 10 12 13 7 11
26 25 24 23 24 23 24 24 25 25 25 25 28 31 29 32 32 33 33 30 29 29 31 30 29 27 25 25 23 23 22 19 14 11 16 15 9 11 9 10 9 9 8
24 22 21 23 23 23 24 24 24 24 24 25 25 27 29 19 27 17 17 19 27 31 31 27 28 27 26 25 23 21 18 16 14 14 14 16 12 9 9 7 2 4 11
21 22 19 21 21 20 19 20 21 21 20 19 20 25 26 28 25 26 28 29 30 30 30 28 27 28 27 25 24 22 21 19 19 18 18 17 11 7 10 8 4 8 11
19 18 18 16 17 15 15 17 17 16 17 17 18 19 20 21 21 23 24 23 25 29 30 28 29 28 28 27 25 24 23 21 20 20 18 18 16 14 8 5 3 3 6
14 13 12 13 12 11 11 11 13 12 12 13 15 16 16 17 17 16 17 17 18 20 21 23 28 29 29 28 28 27 26 24 24 23 20 18 17 14 6 6 5 3 3
11 8 9 7 7 8 6 7 9 8 9 9 10 13 13 14 14 13 14 14 14 15 17 19 21 22 29 28 29 28 28 28 27 25 24 20 19 15 13 7 7 2 1
1 -0 -1 3 2 2 2 4 4 5 5 5 7 8 11 12 12 11 12 12 12 12 13 16 18 19 22 26 29 29 29 28 27 26 24 22 20 17 16 14 7 6 4
5 3 1 -1 -1 -0 -0 1 0 2 2 3 5 6 7 9 9 9 10 10 10 10 11 13 15 17 18 24 29 28 29 29 28 27 26 23 21 19 16 14 12 10 10

GFSGL_sfc_temp_048.txt.gz
Temp
53 52 51 50 51 52 52 51 50 48 47 46 47 46 46 46 45 42 39 41 39 37 38 36 36 37 35 35 34 34 33 31 29 31 31 32 30 31 32 32 32 32 33
51 50 50 51 52 51 49 48 48 48 48 48 46 46 46 46 43 40 41 41 39 38 36 36 36 39 34 33 32 32 31 30 29 26 28 28 28 30 29 29 32 34 33
51 50 50 50 50 47 47 48 48 48 47 47 46 46 46 43 43 42 41 40 38 37 37 35 35 35 33 31 31 30 30 32 28 26 26 28 28 28 29 30 30 31 33
50 49 48 48 49 48 48 48 48 47 45 45 45 46 45 44 44 41 41 38 37 37 36 35 35 33 33 32 32 30 30 28 27 25 25 26 26 28 27 25 26 29 29
48 47 46 48 48 46 45 45 44 45 45 46 44 43 43 44 44 41 40 37 35 35 34 34 34 35 38 35 32 31 29 26 25 25 24 24 25 24 24 26 24 26 27
46 46 47 48 47 45 44 44 45 45 45 44 42 42 42 44 41 41 39 35 35 33 33 33 33 38 38 39 38 37 32 26 25 23 23 23 23 23 24 23 23 23 22
46 46 46 45 44 45 46 45 44 43 42 41 41 41 39 39 40 40 39 35 34 33 33 32 33 35 35 33 35 36 35 33 27 25 22 23 21 24 25 23 24 24 24
42 44 45 45 44 44 43 42 41 41 40 40 38 37 36 37 38 39 38 35 33 32 32 32 32 32 32 32 31 29 29 30 30 29 26 25 25 27 26 27 25 25 27
44 44 44 44 43 43 42 41 41 40 38 36 36 35 34 34 37 38 36 32 31 31 32 32 33 31 33 36 29 27 28 28 32 33 33 31 32 32 32 27 23 22 19
43 44 44 43 42 41 39 38 37 36 35 35 34 34 35 33 36 37 36 30 29 30 30 31 35 33 34 33 30 26 23 27 27 27 27 28 30 29 30 28 25 20 20
42 42 42 42 40 39 37 35 34 33 32 31 32 31 32 32 33 37 37 31 30 30 30 30 31 34 35 34 33 26 25 28 26 26 26 26 27 27 27 28 28 24 21
41 40 39 37 37 37 33 33 33 31 30 30 27 30 30 31 34 35 36 36 33 29 30 30 30 33 35 33 33 31 30 27 24 22 21 22 22 23 26 27 27 27 27
35 34 33 33 33 32 32 31 30 29 28 29 30 30 31 33 29 34 35 35 35 31 31 31 33 33 34 32 32 32 30 27 24 21 21 22 23 24 26 25 27 27 26
32 31 31 30 31 30 30 30 28 26 27 30 30 30 30 32 32 29 30 31 32 32 30 32 30 30 29 31 30 31 29 27 25 23 22 23 21 21 21 23 21 22 21
31 31 30 30 28 29 29 28 29 29 28 29 30 30 30 30 32 34 33 33 30 30 30 30 29 28 28 27 27 27 27 26 23 22 20 19 19 20 20 21 21 21 18
30 29 26 26 25 27 27 27 32 31 32 32 33 31 31 34 35 36 36 35 34 33 29 29 27 27 26 27 26 26 26 25 24 23 21 20 20 19 19 20 20 19 17
26 26 25 25 25 24 24 23 21 26 30 31 31 32 32 33 33 34 35 34 34 32 30 29 28 28 26 26 26 26 25 25 24 23 22 19 19 19 17 18 18 17 17
25 23 22 22 21 21 20 23 22 22 22 22 26 29 29 28 31 33 33 33 30 31 30 29 29 28 28 27 26 26 25 24 22 21 19 19 16 18 16 17 17 14 15
23 21 21 19 20 20 20 19 19 20 21 20 20 22 22 24 28 31 32 29 29 27 28 28 30 30 29 29 27 26 26 24 21 17 19 17 14 16 15 16 16 11 12
23 21 19 20 19 17 17 16 18 17 17 16 16 16 18 19 18 18 22 22 24 26 28 28 30 31 30 27 26 26 24 23 20 18 17 17 14 14 15 14 12 13 16
19 19 15 17 15 15 14 14 13 14 12 13 13 14 15 15 17 16 16 16 16 17 19 19 27 30 28 27 27 25 23 22 22 20 19 17 15 15 15 15 13 14 15
15 14 14 13 13 10 10 11 10 9 9 9 9 12 12 12 14 14 14 14 14 15 16 17 19 21 26 28 27 25 24 23 22 21 20 19 18 17 17 14 12 12 14
11 8 8 10 7 5 4 5 6 5 6 5 6 7 8 9 10 11 11 12 13 13 14 14 15 18 20 20 26 27 25 24 25 23 21 19 19 19 17 15 13 11 11
7 1 6 2 -1 2 -5 -6 -2 0 3 2 2 4 5 6 7 7 9 10 11 11 12 12 13 14 15 17 19 24 29 28 27 25 24 21 20 19 17 16 14 13 12
-3 -6 -5 -3 -5 -10 -12 -7 -8 -9 -3 -2 -0 1 3 3 5 5 6 7 9 9 10 10 11 11 13 14 17 19 24 28 28 27 25 23 22 19 19 18 16 14 12
3 -1 -5 -7 -10 -12 -14 -13 -11 -12 -7 -4 -3 -2 0 0 3 3 3 5 5 6 8 9 10 9 11 13 17 18 18 28 28 27 26 24 22 20 19 18 16 15 14